Location: Altoona
(40.5167°N, 78.4000°W)
Time: 07:13:32
(UTC-04:00)

Daily predictions for brighter satellites

Satellite Brightness Start Highest point End
(mag) Time Altitude Azimuth Time Altitude Azimuth Time Altitude Azimuth
Cosmos 1980 Rocket 4.1 21:14:05 10° NW 21:18:50 28° WSW 21:23:35 10° SSW
Cosmos 2360 Rocket 2.8 21:14:20 10° N 21:19:42 42° ENE 21:25:02 10° SE
In-Cosmos 22 4.3 21:14:58 10° S 21:20:44 83° E 21:26:30 10° N
SL-16 R/B 2.4 21:15:16 10° NNW 21:20:57 76° WSW 21:26:35 10° SSE
YAOGAN 11 4.3 21:17:50 10° S 21:22:08 75° WSW 21:26:31 10° NNW
SJ-11-01 4.3 21:17:45 10° SSE 21:22:27 79° ENE 21:27:12 10° N
Envisat 3.4 21:17:43 10° SE 21:22:34 48° ENE 21:27:27 10° N
ERS-1 Rocket 3.0 21:21:32 10° SSE 21:26:33 89° E 21:31:38 10° NNW
Cosmos 1437 4.0 21:26:08 10° SSE 21:28:53 25° E 21:31:39 10° NE
Cosmos 1908 3.5 21:27:00 10° N 21:30:49 50° E 21:34:37 10° SSE
H-2A R/B 2.2 21:29:19 10° SSE 21:33:50 78° ENE 21:38:22 10° N
Cosmos 1328 Rocket 4.0 21:32:09 10° NNW 21:36:34 64° W 21:40:57 10° S
Cosmos 1777 Rocket 4.1 21:34:08 10° SSW 21:39:24 87° WNW 21:44:42 10° NNE
DELTA 2 R/B (1) 3.6 21:35:56 10° W 21:41:27 68° SSW 21:46:52 10° ESE
NOSS 3-1 (C) 4.0 21:36:36 10° S 21:41:44 33° ESE 21:47:17 10° NE
Cosmos 1674 2.7 21:39:04 10° S 21:42:51 69° E 21:46:43 10° NNE
ATLAS CENTAUR R/B 3.9 21:43:00 10° WNW 21:45:57 18° WSW 21:48:45 10° SSW
Cosmos 1939 Rocket 3.1 21:47:20 10° S 21:51:17 68° W 21:55:10 10° NNW
Cosmos 1833 4.3 21:47:17 10° SSW 21:53:01 87° WNW 21:58:44 10° NNE
Cosmos 1300 3.9 21:51:17 10° NNE 21:54:38 28° ENE 21:56:54 16° SE
Cosmos 405 3.1 21:52:37 10° N 21:56:16 83° W 21:59:42 11° S
Cosmos 2333 Rocket 4.1 21:52:50 10° N 21:56:42 18° NE 22:00:34 10° E
CZ-2C R/B 2.4 21:56:13 10° SW 21:56:54 12° W 21:57:35 10° WNW
Cosmos 1437 Rocket 3.5 21:57:23 10° NNW 22:01:05 49° W 22:04:48 10° S
H-2A R/B 3.6 21:58:30 12° ESE 22:02:03 23° ENE 22:06:11 10° NNE
Terra 3.6 22:00:09 11° ESE 22:02:59 18° ENE 22:06:06 10° NNE
YAOGAN 6 2.9 22:00:51 17° SSE 22:03:26 53° ENE 22:06:57 10° N
COSMOS 2428 3.1 22:03:28 10° NNW 22:09:00 51° ENE 22:13:00 19° SE
Cosmos 1680 Rocket 3.5 22:04:50 10° NNW 22:10:06 87° WSW 22:14:23 16° SSE
CZ-4 SHROUD 3.4 22:08:08 16° S 22:10:32 68° WSW 22:13:40 10° NNW
CZ-4B R/B 3.6 22:07:22 10° NNE 22:12:37 63° ESE 22:17:44 10° S
Cosmos 2297 Rocket 4.0 22:13:15 12° ESE 22:13:42 12° E 22:15:45 10° ENE
Delta 2 Rocket 3.5 22:10:32 10° WSW 22:13:48 35° S 22:15:00 26° SE
SPOT 1/Viking Rocket 3.6 22:10:08 17° SSE 22:14:00 64° ENE 22:19:07 10° N
Cosmos 923 Rocket 4.4 22:09:05 10° NNW 22:14:13 60° WSW 22:18:47 13° S
OAO 2 Rocket 4.3 22:11:06 10° SW 22:15:34 28° SSE 22:18:12 19° ESE
Cosmos 1455 4.4 22:15:30 10° NE 22:17:10 12° ENE 22:18:08 11° E
MetOp-A 4.2 22:12:54 14° SSE 22:17:37 82° WSW 22:23:00 10° NNW
Cosmos 2219 Rocket 3.2 22:16:20 10° N 22:21:21 33° ENE 22:24:46 18° ESE
CZ-4 R/B 4.0 22:16:59 10° NNE 22:21:50 53° E 22:25:21 18° S
Cosmos 2242 Rocket 4.4 22:17:54 10° N 22:22:04 37° ENE 22:24:09 24° SE
ARGOS 3.3 22:18:17 20° SSE 22:22:04 64° ENE 22:27:25 10° N
Cosmos 1898 Rocket 3.7 22:19:08 15° S 22:23:13 48° ESE 22:28:13 10° NNE
FALCON 9 R/B 4.4 21:52:07 10° WSW 22:25:51 66° S 22:33:39 10° E
Cosmos 1328 4.3 22:22:19 10° SSW 22:26:13 60° W 22:30:09 10° N
Cosmos 2150 Rocket 4.2 22:22:49 13° S 22:27:32 55° ESE 22:32:53 10° NNE
CZ-4C R/B 3.9 22:26:40 27° ESE 22:27:50 35° ENE 22:31:01 10° N
Cosmos 2237 4.2 22:24:55 10° NNW 22:30:41 81° ENE 22:34:15 24° SSE
Cosmos 2151 4.0 22:28:22 10° SSW 22:32:23 44° WNW 22:36:25 10° N
USA 245 2.2 22:32:06 45° S 22:32:45 74° WSW 22:35:06 10° NNW
CARTOSAT-1 4.5 22:34:08 25° ESE 22:35:51 34° ENE 22:39:46 10° N
SL-08 RB Rocket 3.6 22:34:43 27° SSE 22:37:05 73° ENE 22:41:35 10° N
Sich 1 3.0 22:34:25 23° S 22:37:08 72° E 22:41:32 10° NNE
Cosmos 1633 Rocket 3.0 22:36:53 24° S 22:39:25 71° E 22:43:47 10° NNE
Cosmos 1726 2.0 22:37:47 10° N 22:41:35 85° E 22:43:05 35° S
Cosmos 2219 3.6 22:36:50 10° SSW 22:42:33 65° WNW 22:48:17 10° NNE
Tiangong 1 1.2 22:39:55 10° SW 22:42:38 50° S 22:42:38 50° S
DELTA 2 R/B(2) 3.7 22:41:56 10° W 22:43:33 62° SW 22:43:33 62° SW
NOSS 3-1 (A) 3.3 22:39:03 10° SSW 22:44:52 75° ESE 22:51:20 10° NE
Lacrosse 4 Rocket 4.1 22:44:17 10° NNE 22:45:28 11° NE 22:46:39 10° ENE
SPOT 5 4.3 22:43:56 10° SSW 22:47:55 30° W 22:52:05 10° NW
Cosmos 2333 4.2 22:44:13 10° NNW 22:49:58 86° ENE 22:52:56 30° SSE
Cosmos 1271 Rocket 2.7 22:46:47 10° N 22:50:36 66° E 22:51:39 44° SE
SL-14 R/B 3.5 22:48:33 22° SSW 22:50:58 67° W 22:54:58 10° N
Cosmos 1703 3.2 22:50:01 41° SSE 22:51:10 63° E 22:55:02 10° NNE
Cosmos 2237 Rocket 3.1 22:46:08 10° N 22:51:26 38° ENE 22:54:11 24° ESE
Cosmos 2058 4.0 22:49:04 10° SSW 22:52:53 41° WNW 22:56:47 10° N
Meteor 1-27 4.5 22:48:38 10° NNW 22:54:17 66° W 22:57:52 22° S
Cosmos 2082 4.2 22:52:45 31° SSE 22:54:39 40° ESE 22:59:58 10° NE
USA 32 4.0 22:53:43 10° N 22:59:01 88° E 23:01:35 31° S
Iridium 2 3.6 23:01:05 50° S 23:02:00 79° E 23:05:52 10° N
COSMOS 2455 4.3 22:57:46 10° N 23:02:50 27° NE 23:06:26 16° E
Cosmos 2360 Rocket 3.8 22:58:46 10° NW 23:03:27 27° WSW 23:07:20 13° SSW
Meteor 2-10 4.2 23:00:21 10° N 23:06:05 82° E 23:08:39 35° SSE
ATLAS 2AS CENTAUR R/B 3.2 23:03:27 26° S 23:07:19 47° ESE 23:14:51 10° NE
Meteor 1-4 Rocket 2.8 23:05:16 10° NNW 23:09:00 63° W 23:09:49 47° SSW
ERBS 4.5 23:12:02 17° ENE 23:12:02 17° ENE 23:13:00 10° ENE
Nadezhda 1 Rocket 3.9 23:08:40 10° N 23:14:47 80° E 23:17:27 36° SSE
Cosmos 1626 2.0 23:20:38 73° ESE 23:20:46 74° E 23:24:31 10° NNE
IGS 5A 3.4 23:21:56 57° S 23:22:43 82° WSW 23:26:55 10° NNW
Cosmos 1937 Rocket 3.8 23:20:01 20° SSW 23:23:39 67° WNW 23:28:51 10° NNE
Cosmos 220 Rocket 4.4 23:22:01 28° SW 23:24:09 63° WNW 23:28:34 10° NNE
Landsat 7 4.4 23:22:40 33° SSW 23:24:26 51° W 23:29:05 10° NNW
ATLAS 3B R/B 3.5 23:19:36 10° NNW 23:26:15 42° NE 23:30:02 23° ESE
Cosmos 1745 Rocket 4.2 23:22:21 24° SSW 23:26:16 70° W 23:32:27 10° N
Cosmos 2227 Rocket 2.1 23:27:04 34° SSW 23:29:39 82° ESE 23:35:21 10° NNE
Cosmos 1470 Rocket 3.8 23:28:46 42° SW 23:30:02 64° W 23:34:21 10° N
Cosmos 292 Rocket 4.2 23:25:35 10° NNW 23:30:13 51° WSW 23:31:27 40° SSW
Cosmos 1933 Rocket 3.8 23:29:58 41° SSW 23:31:21 66° W 23:35:49 10° N
Cosmos 1709 Rocket 4.0 23:32:45 43° SSE 23:34:37 61° E 23:40:37 10° NNE
Cosmos 1703 Rocket 4.3 23:30:41 10° N 23:34:47 39° ENE 23:35:00 38° E
Cosmos 990 Rocket 4.1 23:33:45 32° SSW 23:36:10 72° WNW 23:41:19 10° NNE
Cosmos 2221 Rocket 4.2 23:35:33 10° N 23:39:54 43° ENE 23:40:13 42° E
Terra 2.3 23:39:02 39° SW 23:40:18 50° W 23:44:57 10° NNW
Spot 4 4.0 23:39:31 49° SSW 23:40:40 66° WSW 23:45:31 10° NNW
H-2A R/B 2.7 23:39:08 33° SSW 23:41:04 48° W 23:46:20 10° NNW
Cosmos 2333 Rocket 2.2 23:35:51 10° NNW 23:41:37 76° WSW 23:43:13 48° S
Cosmos 1346 4.5 23:42:11 37° NW 23:42:11 37° NW 23:44:41 10° N
SL-16 R/B 2.9 23:38:41 10° NNW 23:44:08 45° ENE 23:45:52 35° ESE
Cosmos 1269 Rocket 4.3 23:41:44 10° N 23:46:59 57° ENE 23:48:05 47° ESE
NOSS 0 Rocket 4.1 23:41:22 10° NNW 23:47:26 60° WSW 23:49:18 42° SSW
COSMOS 2428 4.4 23:48:36 10° NW 23:52:50 22° W 23:55:01 18° SW
Cosmos 1455 3.0 23:49:30 10° NNW 23:53:06 41° W 23:53:10 41° W
